Ste-Foy-Tarentaise, France 16 day weather forecast

Slopes altitude range 1550 m - 2620m

Number of lifts: 7 Pistes: 32km

In some cases the lift and piste totals shown are for the ski domain (e.g. Three Valleys) rather than individual resort (e.g. Courchevel)

Overview

The 16 day weather forecast is fully updated 4 times every day.

    • Sat 18 AUG 2018
    • Sat 18
    • 7C 12C
    • Sun 19 AUG 2018
    • Sun 19
    • 7C 13C
    • Mon 20 AUG 2018
    • Mon 20
    • 8C 13C
    • Tue 21 AUG 2018
    • Tue 21
    • 9C 13C
    • Wed 22 AUG 2018
    • Wed 22
    • 8C 11C
    • Thu 23 AUG 2018
    • Thu 23
    • 8C 13C
    • Fri 24 AUG 2018
    • Fri 24
    • 7C 12C
    • Sat 25 AUG 2018
    • Sat 25
    • 4C 10C
    • Sun 26 AUG 2018
    • Sun 26
    • 4C 11C
    • Mon 27 AUG 2018
    • Mon 27
    • 6C 14C
    • Tue 28 AUG 2018
    • Tue 28
    • 9C 19C
    • Wed 29 AUG 2018
    • Wed 29
    • 10C 21C
    • Thu 30 AUG 2018
    • Thu 30
    • 12C 17C
    • Fri 31 AUG 2018
    • Fri 31
    • 10C 18C
    • Sat 01 SEP 2018
    • Sat 01
    • 10C 19C
    • Sun 02 SEP 2018
    • Sun 02
    • 8C 12C

Date:

Time Type 0°C level Temp Chill Snow Cloud Speed Gust Dir Press
12:00 3924m 12°C 12_3 0cm 73% 3mph 4mph 1019mB
15:00 4040m 12°C 12_2 0cm 99% 2mph 3mph 1019mB
18:00 3983m 12°C 12_1 0cm 91% 1mph 2mph 1020mB
21:00 4043m 5°C 5_3 0cm 87% 3mph 4mph 1022mB
0:00 4066m 4°C 4_4 0cm 59% 4mph 5mph 1022mB
3:00 4074m 3°C 3_3 0cm 0% 3mph 5mph 1021mB
6:00 4085m 3°C 3_4 0cm 4% 4mph 4mph 1022mB
9:00 4067m 7°C 7_3 0cm 71% 3mph 4mph 1022mB
12:00 3958m 13°C 13_2 0cm 86% 2mph 2mph 1020mB
15:00 4064m 13°C 13_2 0cm 100% 2mph 2mph 1019mB
18:00 4169m 13°C 13_3 0cm 100% 3mph 3mph 1020mB
21:00 4158m 8°C 8_2 0cm 100% 2mph 2mph 1021mB
0:00 4118m 7°C 7_1 0cm 100% 1mph 2mph 1021mB
3:00 4107m 6°C 6_2 0cm 100% 2mph 2mph 1021mB
6:00 4123m 6°C 6_2 0cm 100% 2mph 2mph 1021mB
9:00 4102m 8°C 8_2 0cm 100% 2mph 2mph 1020mB
12:00 4106m 13°C 13_1 0cm 99% 1mph 2mph 1019mB
15:00 4213m 12°C 12_3 0cm 100% 3mph 4mph 1018mB
18:00 4193m 12°C 12_4 0cm 100% 4mph 5mph 1018mB
21:00 4288m 9°C 9_2 0cm 100% 2mph 4mph 1020mB
0:00 4329m 7°C 7_2 0cm 100% 2mph 2mph 1020mB
3:00 4305m 7°C 7_2 0cm 100% 2mph 3mph 1020mB
6:00 4217m 7°C 7_3 0cm 100% 3mph 3mph 1020mB
9:00 4248m 9°C 9_3 0cm 89% 3mph 3mph 1019mB
12:00 4261m 13°C 13_2 0cm 85% 2mph 3mph 1018mB
15:00 4227m 12°C 12_2 0cm 100% 2mph 2mph 1018mB
18:00 4226m 12°C 12_0 0cm 100% 0mph 1mph 1019mB
21:00 4273m 9°C 9_3 0cm 100% 3mph 4mph 1020mB
0:00 4235m 8°C 8_4 0cm 100% 4mph 5mph 1020mB
3:00 4168m 7°C 7_4 0cm 100% 4mph 4mph 1020mB
6:00 4144m 6°C 6_4 0cm 100% 4mph 4mph 1020mB
9:00 4145m 8°C 8_4 0cm 100% 4mph 4mph 1020mB
12:00 4148m 11°C 11_2 0cm 100% 2mph 2mph 1019mB
15:00 4132m 11°C 11_2 0cm 100% 2mph 2mph 1018mB
18:00 4148m 11°C 11_3 0cm 100% 3mph 3mph 1018mB
21:00 4149m 8°C 8_2 0cm 100% 2mph 3mph 1019mB
0:00 4138m 7°C 7_2 0cm 100% 2mph 3mph 1019mB
3:00 4083m 4°C 4_2 0cm 100% 2mph 3mph 1018mB
6:00 4088m 4°C 4_1 0cm 97% 1mph 2mph 1018mB
9:00 4049m 8°C 8_1 0cm 92% 1mph 2mph 1017mB
12:00 4028m 13°C 13_3 0cm 94% 3mph 5mph 1015mB
15:00 4048m 13°C 13_6 0cm 100% 6mph 7mph 1014mB
18:00 3982m 13°C 13_5 0cm 100% 5mph 6mph 1015mB
21:00 4017m 7°C 7_4 0cm 100% 4mph 5mph 1016mB
0:00 4032m 6°C 6_4 0cm 100% 4mph 5mph 1015mB
3:00 3872m 7°C 7_5 0cm 100% 5mph 5mph 1015mB
6:00 3877m 6°C 6_6 0cm 100% 6mph 7mph 1015mB
9:00 3872m 7°C 7_7 0cm 100% 7mph 7mph 1015mB
12:00 3941m 12°C 12_7 0cm 82% 7mph 7mph 1014mB
15:00 3983m 12°C 12_7 0cm 49% 7mph 8mph 1013mB
18:00 3849m 12°C 12_8 0cm 75% 8mph 8mph 1014mB
21:00 4054m 5°C 5_6 0cm 100% 6mph 7mph 1015mB
0:00 3993m 4°C 4_6 0cm 100% 6mph 6mph 1015mB
3:00 3923m 3°C 3_5 0cm 100% 5mph 6mph 1014mB
6:00 3811m 3°C 3_6 0cm 100% 6mph 6mph 1015mB
9:00 3408m 4°C 4_6 0cm 22% 6mph 5mph 1014mB
12:00 3478m 10°C 10_7 0cm 58% 7mph 7mph 1012mB
15:00 3605m 10°C 10_8 0cm 100% 8mph 8mph 1011mB
18:00 3612m 10°C 10_6 0cm 100% 6mph 7mph 1012mB
21:00 3385m 4°C 4_2 0cm 95% 2mph 2mph 1016mB
0:00 3435m 4°C 4_1 0cm 97% 1mph 1mph 1016mB
3:00 3270m 4°C 4_1 0cm 97% 1mph 1mph 1015mB
6:00 3194m 3°C 3_2 0cm 93% 2mph 2mph 1016mB
9:00 3082m 4°C 4_5 0cm 68% 5mph 5mph 1015mB
12:00 3152m 11°C 11_7 0cm 66% 7mph 6mph 1014mB
15:00 3224m 11°C 11_8 0cm 71% 8mph 8mph 1014mB
18:00 3206m 11°C 11_5 0cm 66% 5mph 7mph 1015mB
21:00 3454m 3°C 3_2 0cm 17% 2mph 2mph 1018mB
0:00 3471m 2°C 2_2 0cm 8% 2mph 3mph 1018mB
3:00 3441m 2°C 2_1 0cm 0% 1mph 2mph 1018mB
6:00 3558m 2°C 2_2 0cm 0% 2mph 3mph 1019mB
9:00 3565m 6°C 6_6 0cm 0% 6mph 6mph 1019mB
12:00 3705m 14°C 14_7 0cm 0% 7mph 6mph 1018mB
15:00 3874m 14°C 14_7 0cm 0% 7mph 6mph 1017mB
18:00 4093m 15°C 15_4 0cm 0% 4mph 5mph 1019mB
21:00 4332m 6°C 6_3 0cm 62% 3mph 4mph 1021mB
0:00 4300m 6°C 6_5 0cm 78% 5mph 6mph 1021mB
3:00 4370m 6°C 6_5 0cm 45% 5mph 6mph 1021mB
6:00 4400m 5°C 5_5 0cm 23% 5mph 6mph 1021mB
Afternoon 0mm 0 4549m 19°C 19_2 0cm 8% 2mph 4mph 1020mB
Morning 0mm 0 4444m 8°C 8_6 0cm 13% 6mph 7mph 1022mB
Afternoon 0mm 0 4424m 21°C 21_2 0cm 21% 2mph 3mph 1020mB
Morning 0.161458mm 1.875 4229m 11°C 11_4 0cm 84% 4mph 5mph 1022mB
Afternoon 1.28125mm 13 3963m 17°C 17_3 0cm 99% 3mph 4mph 1020mB
Morning 0.078125mm 0.3125 3966m 8°C 8_2 0cm 55% 2mph 3mph 1021mB
Afternoon 0.21875mm 2.625 4079m 18°C 18_5 0cm 45% 5mph 7mph 1019mB
Morning 0.0104167mm 0.125 3987m 7°C 7_4 0cm 32% 4mph 5mph 1018mB
Afternoon 0.015625mm 0.1875 3884m 19°C 19_3 0cm 32% 3mph 4mph 1012mB
Morning 0.359375mm 0.8125 3514m 9°C 9_8 0cm 82% 8mph 15mph 1009mB
Afternoon 0.453125mm 0.25 3434m 12°C 12_7 0cm 84% 7mph 15mph 1004mB
Morning 0.15625mm 0 2740m 3°C 3_6 0cm 81% 6mph 13mph 1007mB

16 day outlook at a glance

Forecast issued: 18/08/2018 18:53:59

Chat

Your comments and questions. In a resort? Let us know what it's like!


Characters left 250

For terms and conditions see Readers Comments on the Cookie and privacy policy page.